Location: *
(49.3500°N, 12.6000°E)
Time: 14:09:00
(UTC+00:00)

Ariane Rocket - Pass Details

Date: 18 October 2019
Orbit: 760 x 770 km, 98.8° (Epoch: 12 November)

Event Time Altitude Azimuth Distance (km) Brightness Sun altitude
Rises 17:46:49 0° 156° (SSE) 3,229 6.0 -15.8°
Reaches altitude 10° 17:49:07 10° 154° (SSE) 2,308 5.2 -16.2°
Maximum altitude 17:54:10 71° 72° (ENE) 820 2.9 -17.0°
Drops below altitude 10° 17:59:16 10° 349° (N) 2,326 5.7 -17.8°
Sets 18:01:36 0° 347° (NNW) 3,257 6.5 -18.2°
